Volver al catálogo

CZ-2D DEB

ActivoPO
NORAD 43490·DEBRIS·🇨🇳 China

Lanzado Jun 2, 2018 desde Jiuquan Satellite Launch Center

Loading…

Próximos Pases (próximas 24 horas)

TLE

ActualizadoSource: Space-Track

Época: Sep 14, 2026, 10:50 UTC

1 43490U 18048E   26257.45194977  .00003023  00000-0  26804-3 0  9990
2 43490  98.2822  70.2362 0021738 210.7628 149.2319 14.96879882447534

Sigue CZ-2D DEB en tiempo real con AllMySat

Download on the App Store